Preview of NWS' New Version of Forecast
This preview is not operational and should not be used for support decisions.

Regional Weather Roundup (RWR)

Issued by Gray - Portland, ME (GYX)

                            
000
ASUS41 KGYX 240910
RWRGYX
WEATHER ROUNDUP FOR MAINE AND NEW HAMPSHIRE
NATIONAL WEATHER SERVICE GRAY ME
500 AM EDT MON JUN 24 2019

MEZ002-005-006-010-012-015-018-020-021-024-026-027-029-241000-
MAINE
  
CITY           SKY/WX    TMP DP  RH WIND       PRES   REMARKS
PORTLAND       FAIR      57  47  69 SW3       29.79R                  
SANFORD        FAIR      49  47  93 CALM      29.81R                  
BAR HARBOR     FAIR      48  48 100 CALM      29.78R                  
WISCASSET      FAIR      51  46  83 CALM      29.80R                  
ROCKLAND       FAIR      49  47  93 W5        29.78R                  
FRYEBURG       FAIR      49  46  90 CALM      29.82R                  
LEWISTONAUBURN FAIR      52  48  86 CALM      29.81R                  
AUGUSTA        FAIR      57  43  59 CALM      29.81R                  
WATERVILLE     FAIR      52  44  74 N3        29.78R                  
BANGOR         FAIR      48  47  96 SW3       29.79R                  
GREENVILLE       N/A     50  40  68 NW5       29.80R                  
MILLINOCKET    FAIR      47  43  86 CALM      29.81R                  
HOULTON        FAIR      42  38  85 CALM      29.77R                  
PRESQUE ISLE   FAIR      48  37  65 W10       29.79R                  
FRENCHVILLE    FAIR      48  36  63 NW12      29.78R                  
CARIBOU        FAIR      47  38  71 NW7       29.77R                  
$$

NHZ002-005-008-009-011-012-014-241000-
NEW HAMPSHIRE
  
CITY           SKY/WX    TMP DP  RH WIND       PRES   REMARKS
PORTSMOUTH     CLEAR     61  49  64 W5        29.78R                  
ROCHESTER      FAIR      59  48  67 NW7       29.80R                  
NASHUA         FAIR      58  56  93 W5        29.82R                  
MANCHESTER     FAIR      60  53  77 CALM      29.80S                  
CONCORD        FAIR      51  48  89 CALM      29.82S                  
LACONIA        FAIR      55  50  83 CALM      29.83R                  
PLYMOUTH       FAIR      53  48  84 NW3       29.83R                  
BERLIN         FAIR      42  39  89 CALM      29.85R                  
WHITEFIELD     FAIR      43  40  89 CALM      29.86R                  
JAFFREY        FAIR      54  51  90 CALM      29.86R                  
KEENE          FAIR      53  52  96 CALM      29.86R                  
LEBANON        FAIR      50  45  83 CALM      29.85R                  
MT WASHINGTON  PTCLDY    41  28  60 N39G47      N/A                   
$$

VTZ005-007-008-241000-
VERMONT
  
CITY           SKY/WX    TMP DP  RH WIND       PRES   REMARKS
ST JOHNSBURY     N/A     49  48  97 MISG      29.85R                  
MONTPELIER     FAIR      51  48  89 CALM      29.90R                  
BURLINGTON     FAIR      56  51  84 CALM      29.86R                  
$$

MAZ007-012-024-CTZ003-RIZ002-NYZ038-NYZ072-241000-
SOUTHERN NEW ENGLAND AND NY
  
CITY           SKY/WX    TMP DP  RH WIND       PRES   REMARKS
BOSTON         FAIR      71  52  50 NW12      29.80R                  
WORCESTER      FAIR      61  51  70 NW12      29.85S                  
NANTUCKET      FAIR      64  57  78 NW9       29.79R                  
PROVIDENCE     FAIR      66  61  84 W6        29.82R                  
HARTFORD       FAIR      62  50  64 S3        29.85R                  
ALBANY         FAIR      58  49  72 CALM      29.87S                  
NEW YORK CITY  FAIR      71  55  56 NW5       29.86S                  
$$

ANZ081-ANZ082-ANZ150-NHZ014-MEZ023>029-241000-
COASTAL MARINE OBSERVATIONS
  
STATION/POSITION TIME  TEMP    WIND        PRES    WAVE
                       AIR SEA DIR/SP/G            HT/PER
                 (UTC) (F)     (DEG/KT/KT) (MB)    (FT/S)
ISLE OF SHOALS   0800   65     300/ 13/ 13 1007.7R
JEFFREYS LEDGE   0838      58                N/A     1/ 3
$$

.............KEY..............
   WCI - WIND CHILL
   TC  - TEMPERATURE IN CELSIUS
   VSB - VISIBILITY IN MILES
   HX  - HEAT INDEX
   FAIR- INDICATES FEW OR NO CLOUDS BELOW 12,000 FT, WITH NO 
         SIGNIFICANT WEATHER AND/OR OBSTRUCTIONS TO VISIBILITY.